﻿測定場所 (Monitoring sites),日付 (Measurement date),時間 (Measurement time),線量率 最大値 (max) μGy/h,線量率 最小値 (min) μGy/h,線量率 平均値 (average) μGy/h,
江戸川 (Edogawa),2016-01-31,23:01～24:00,0.0606,0.0537,0.0570,
江戸川 (Edogawa),2016-01-31,22:01～23:00,0.0606,0.0524,0.0566,
江戸川 (Edogawa),2016-01-31,21:01～22:00,0.0606,0.0527,0.0567,
江戸川 (Edogawa),2016-01-31,20:01～21:00,0.0604,0.0532,0.0568,
江戸川 (Edogawa),2016-01-31,19:01～20:00,0.0594,0.0541,0.0569,
江戸川 (Edogawa),2016-01-31,18:01～19:00,0.0609,0.0519,0.0565,
江戸川 (Edogawa),2016-01-31,17:01～18:00,0.0604,0.0540,0.0570,
江戸川 (Edogawa),2016-01-31,16:01～17:00,0.0623,0.0534,0.0573,
江戸川 (Edogawa),2016-01-31,15:01～16:00,0.0614,0.0536,0.0570,
江戸川 (Edogawa),2016-01-31,14:01～15:00,0.0595,0.0550,0.0573,
江戸川 (Edogawa),2016-01-31,13:01～14:00,0.0603,0.0545,0.0572,
江戸川 (Edogawa),2016-01-31,12:01～13:00,0.0595,0.0532,0.0570,
江戸川 (Edogawa),2016-01-31,11:01～12:00,0.0613,0.0537,0.0573,
江戸川 (Edogawa),2016-01-31,10:01～11:00,0.0601,0.0544,0.0572,
江戸川 (Edogawa),2016-01-31,09:01～10:00,0.0605,0.0539,0.0571,
江戸川 (Edogawa),2016-01-31,08:01～09:00,0.0605,0.0519,0.0565,
江戸川 (Edogawa),2016-01-31,07:01～08:00,0.0607,0.0532,0.0566,
江戸川 (Edogawa),2016-01-31,06:01～07:00,0.0591,0.0534,0.0562,
江戸川 (Edogawa),2016-01-31,05:01～06:00,0.0601,0.0542,0.0566,
江戸川 (Edogawa),2016-01-31,04:01～05:00,0.0600,0.0534,0.0566,
江戸川 (Edogawa),2016-01-31,03:01～04:00,0.0607,0.0533,0.0572,
江戸川 (Edogawa),2016-01-31,02:01～03:00,0.0602,0.0528,0.0571,
江戸川 (Edogawa),2016-01-31,01:01～02:00,0.0604,0.0529,0.0565,
江戸川 (Edogawa),2016-01-31,00:01～01:00,0.0610,0.0539,0.0566,
江戸川 (Edogawa),2016-01-30,23:01～24:00,0.0598,0.0546,0.0569,
江戸川 (Edogawa),2016-01-30,22:01～23:00,0.0597,0.0541,0.0568,
江戸川 (Edogawa),2016-01-30,21:01～22:00,0.0596,0.0533,0.0567,
江戸川 (Edogawa),2016-01-30,20:01～21:00,0.0593,0.0540,0.0566,
江戸川 (Edogawa),2016-01-30,19:01～20:00,0.0600,0.0531,0.0563,
江戸川 (Edogawa),2016-01-30,18:01～19:00,0.0591,0.0531,0.0564,
江戸川 (Edogawa),2016-01-30,17:01～18:00,0.0599,0.0537,0.0568,
江戸川 (Edogawa),2016-01-30,16:01～17:00,0.0606,0.0527,0.0565,
江戸川 (Edogawa),2016-01-30,15:01～16:00,0.0591,0.0534,0.0564,
江戸川 (Edogawa),2016-01-30,14:01～15:00,0.0589,0.0533,0.0564,
江戸川 (Edogawa),2016-01-30,13:01～14:00,0.0600,0.0531,0.0562,
江戸川 (Edogawa),2016-01-30,12:01～13:00,0.0597,0.0530,0.0563,
江戸川 (Edogawa),2016-01-30,11:01～12:00,0.0600,0.0527,0.0565,
江戸川 (Edogawa),2016-01-30,10:01～11:00,0.0607,0.0534,0.0572,
江戸川 (Edogawa),2016-01-30,09:01～10:00,0.0637,0.0558,0.0592,
江戸川 (Edogawa),2016-01-30,08:01～09:00,0.0638,0.0568,0.0607,
江戸川 (Edogawa),2016-01-30,07:01～08:00,0.0657,0.0585,0.0619,
江戸川 (Edogawa),2016-01-30,06:01～07:00,0.0672,0.0586,0.0627,
江戸川 (Edogawa),2016-01-30,05:01～06:00,0.0671,0.0606,0.0634,
江戸川 (Edogawa),2016-01-30,04:01～05:00,0.0677,0.0598,0.0639,
江戸川 (Edogawa),2016-01-30,03:01～04:00,0.0672,0.0604,0.0642,
江戸川 (Edogawa),2016-01-30,02:01～03:00,0.0679,0.0609,0.0642,
江戸川 (Edogawa),2016-01-30,01:01～02:00,0.0688,0.0618,0.0653,
江戸川 (Edogawa),2016-01-30,00:01～01:00,0.0694,0.0601,0.0650,
江戸川 (Edogawa),2016-01-29,23:01～24:00,0.0708,0.0609,0.0652,
江戸川 (Edogawa),2016-01-29,22:01～23:00,0.0674,0.0605,0.0639,
江戸川 (Edogawa),2016-01-29,21:01～22:00,0.0695,0.0603,0.0639,
江戸川 (Edogawa),2016-01-29,20:01～21:00,0.0686,0.0619,0.0655,
江戸川 (Edogawa),2016-01-29,19:01～20:00,0.0682,0.0605,0.0649,
江戸川 (Edogawa),2016-01-29,18:01～19:00,0.0695,0.0619,0.0656,
江戸川 (Edogawa),2016-01-29,17:01～18:00,0.0688,0.0610,0.0642,
江戸川 (Edogawa),2016-01-29,16:01～17:00,0.0665,0.0601,0.0631,
江戸川 (Edogawa),2016-01-29,15:01～16:00,0.0678,0.0613,0.0638,
江戸川 (Edogawa),2016-01-29,14:01～15:00,0.0684,0.0613,0.0650,
江戸川 (Edogawa),2016-01-29,13:01～14:00,0.0704,0.0615,0.0658,
江戸川 (Edogawa),2016-01-29,12:01～13:00,0.0701,0.0613,0.0659,
江戸川 (Edogawa),2016-01-29,11:01～12:00,0.0680,0.0580,0.0624,
江戸川 (Edogawa),2016-01-29,10:01～11:00,0.0635,0.0558,0.0596,
江戸川 (Edogawa),2016-01-29,09:01～10:00,0.0642,0.0552,0.0596,
江戸川 (Edogawa),2016-01-29,08:01～09:00,0.0634,0.0559,0.0595,
江戸川 (Edogawa),2016-01-29,07:01～08:00,0.0617,0.0546,0.0589,
江戸川 (Edogawa),2016-01-29,06:01～07:00,0.0619,0.0557,0.0589,
江戸川 (Edogawa),2016-01-29,05:01～06:00,0.0628,0.0555,0.0588,
江戸川 (Edogawa),2016-01-29,04:01～05:00,0.0623,0.0552,0.0587,
江戸川 (Edogawa),2016-01-29,03:01～04:00,0.0623,0.0549,0.0585,
江戸川 (Edogawa),2016-01-29,02:01～03:00,0.0620,0.0553,0.0586,
江戸川 (Edogawa),2016-01-29,01:01～02:00,0.0619,0.0554,0.0585,
江戸川 (Edogawa),2016-01-29,00:01～01:00,0.0622,0.0541,0.0581,
江戸川 (Edogawa),2016-01-28,23:01～24:00,0.0614,0.0553,0.0581,
江戸川 (Edogawa),2016-01-28,22:01～23:00,0.0612,0.0551,0.0583,
江戸川 (Edogawa),2016-01-28,21:01～22:00,0.0625,0.0548,0.0584,
江戸川 (Edogawa),2016-01-28,20:01～21:00,0.0628,0.0541,0.0580,
江戸川 (Edogawa),2016-01-28,19:01～20:00,0.0619,0.0546,0.0581,
江戸川 (Edogawa),2016-01-28,18:01～19:00,0.0608,0.0542,0.0582,
江戸川 (Edogawa),2016-01-28,17:01～18:00,0.0612,0.0553,0.0582,
江戸川 (Edogawa),2016-01-28,16:01～17:00,0.0620,0.0558,0.0588,
江戸川 (Edogawa),2016-01-28,15:01～16:00,0.0622,0.0561,0.0591,
江戸川 (Edogawa),2016-01-28,14:01～15:00,0.0630,0.0562,0.0594,
江戸川 (Edogawa),2016-01-28,13:01～14:00,0.0627,0.0548,0.0594,
江戸川 (Edogawa),2016-01-28,12:01～13:00,0.0621,0.0569,0.0595,
江戸川 (Edogawa),2016-01-28,11:01～12:00,0.0627,0.0564,0.0600,
江戸川 (Edogawa),2016-01-28,10:01～11:00,0.0627,0.0555,0.0595,
江戸川 (Edogawa),2016-01-28,09:01～10:00,0.0636,0.0565,0.0592,
江戸川 (Edogawa),2016-01-28,08:01～09:00,0.0625,0.0545,0.0586,
江戸川 (Edogawa),2016-01-28,07:01～08:00,0.0616,0.0542,0.0585,
江戸川 (Edogawa),2016-01-28,06:01～07:00,0.0618,0.0553,0.0585,
江戸川 (Edogawa),2016-01-28,05:01～06:00,0.0608,0.0550,0.0580,
江戸川 (Edogawa),2016-01-28,04:01～05:00,0.0619,0.0554,0.0581,
江戸川 (Edogawa),2016-01-28,03:01～04:00,0.0609,0.0551,0.0580,
江戸川 (Edogawa),2016-01-28,02:01～03:00,0.0606,0.0554,0.0578,
江戸川 (Edogawa),2016-01-28,01:01～02:00,0.0619,0.0542,0.0580,
江戸川 (Edogawa),2016-01-28,00:01～01:00,0.0612,0.0542,0.0580,
江戸川 (Edogawa),2016-01-27,23:01～24:00,0.0612,0.0544,0.0580,
江戸川 (Edogawa),2016-01-27,22:01～23:00,0.0605,0.0540,0.0580,
江戸川 (Edogawa),2016-01-27,21:01～22:00,0.0615,0.0550,0.0582,
江戸川 (Edogawa),2016-01-27,20:01～21:00,0.0613,0.0549,0.0583,
江戸川 (Edogawa),2016-01-27,19:01～20:00,0.0625,0.0544,0.0583,
江戸川 (Edogawa),2016-01-27,18:01～19:00,0.0618,0.0552,0.0583,
江戸川 (Edogawa),2016-01-27,17:01～18:00,0.0614,0.0540,0.0584,
江戸川 (Edogawa),2016-01-27,16:01～17:00,0.0620,0.0559,0.0588,
江戸川 (Edogawa),2016-01-27,15:01～16:00,0.0617,0.0554,0.0585,
江戸川 (Edogawa),2016-01-27,14:01～15:00,0.0630,0.0559,0.0591,
江戸川 (Edogawa),2016-01-27,13:01～14:00,0.0629,0.0559,0.0592,
江戸川 (Edogawa),2016-01-27,12:01～13:00,0.0629,0.0543,0.0595,
江戸川 (Edogawa),2016-01-27,11:01～12:00,0.0633,0.0559,0.0593,
江戸川 (Edogawa),2016-01-27,10:01～11:00,0.0621,0.0556,0.0590,
江戸川 (Edogawa),2016-01-27,09:01～10:00,0.0627,0.0545,0.0587,
江戸川 (Edogawa),2016-01-27,08:01～09:00,0.0623,0.0550,0.0592,
江戸川 (Edogawa),2016-01-27,07:01～08:00,0.0639,0.0565,0.0591,
江戸川 (Edogawa),2016-01-27,06:01～07:00,0.0632,0.0561,0.0592,
江戸川 (Edogawa),2016-01-27,05:01～06:00,0.0633,0.0556,0.0589,
江戸川 (Edogawa),2016-01-27,04:01～05:00,0.0624,0.0558,0.0588,
江戸川 (Edogawa),2016-01-27,03:01～04:00,0.0620,0.0551,0.0588,
江戸川 (Edogawa),2016-01-27,02:01～03:00,0.0620,0.0560,0.0588,
江戸川 (Edogawa),2016-01-27,01:01～02:00,0.0618,0.0550,0.0585,
江戸川 (Edogawa),2016-01-27,00:01～01:00,0.0621,0.0562,0.0584,
江戸川 (Edogawa),2016-01-26,23:01～24:00,0.0618,0.0557,0.0583,
江戸川 (Edogawa),2016-01-26,22:01～23:00,0.0625,0.0540,0.0583,
江戸川 (Edogawa),2016-01-26,21:01～22:00,0.0616,0.0546,0.0579,
江戸川 (Edogawa),2016-01-26,20:01～21:00,0.0611,0.0548,0.0582,
江戸川 (Edogawa),2016-01-26,19:01～20:00,0.0615,0.0553,0.0579,
江戸川 (Edogawa),2016-01-26,18:01～19:00,0.0603,0.0558,0.0581,
江戸川 (Edogawa),2016-01-26,17:01～18:00,0.0620,0.0545,0.0582,
江戸川 (Edogawa),2016-01-26,16:01～17:00,0.0625,0.0558,0.0590,
江戸川 (Edogawa),2016-01-26,15:01～16:00,0.0621,0.0560,0.0591,
江戸川 (Edogawa),2016-01-26,14:01～15:00,0.0626,0.0547,0.0590,
江戸川 (Edogawa),2016-01-26,13:01～14:00,0.0629,0.0553,0.0589,
江戸川 (Edogawa),2016-01-26,12:01～13:00,0.0626,0.0563,0.0589,
江戸川 (Edogawa),2016-01-26,11:01～12:00,0.0624,0.0551,0.0588,
江戸川 (Edogawa),2016-01-26,10:01～11:00,0.0617,0.0555,0.0589,
江戸川 (Edogawa),2016-01-26,09:01～10:00,0.0608,0.0552,0.0584,
江戸川 (Edogawa),2016-01-26,08:01～09:00,0.0620,0.0562,0.0585,
江戸川 (Edogawa),2016-01-26,07:01～08:00,0.0627,0.0555,0.0587,
江戸川 (Edogawa),2016-01-26,06:01～07:00,0.0630,0.0549,0.0589,
江戸川 (Edogawa),2016-01-26,05:01～06:00,0.0620,0.0548,0.0584,
江戸川 (Edogawa),2016-01-26,04:01～05:00,0.0620,0.0551,0.0584,
江戸川 (Edogawa),2016-01-26,03:01～04:00,0.0617,0.0555,0.0585,
江戸川 (Edogawa),2016-01-26,02:01～03:00,0.0622,0.0551,0.0584,
江戸川 (Edogawa),2016-01-26,01:01～02:00,0.0613,0.0554,0.0584,
江戸川 (Edogawa),2016-01-26,00:01～01:00,0.0624,0.0530,0.0578,
江戸川 (Edogawa),2016-01-25,23:01～24:00,0.0625,0.0541,0.0578,
江戸川 (Edogawa),2016-01-25,22:01～23:00,0.0607,0.0542,0.0577,
江戸川 (Edogawa),2016-01-25,21:01～22:00,0.0609,0.0546,0.0578,
江戸川 (Edogawa),2016-01-25,20:01～21:00,0.0627,0.0538,0.0578,
江戸川 (Edogawa),2016-01-25,19:01～20:00,0.0622,0.0539,0.0577,
江戸川 (Edogawa),2016-01-25,18:01～19:00,0.0622,0.0549,0.0578,
江戸川 (Edogawa),2016-01-25,17:01～18:00,0.0616,0.0556,0.0584,
江戸川 (Edogawa),2016-01-25,16:01～17:00,0.0637,0.0546,0.0582,
江戸川 (Edogawa),2016-01-25,15:01～16:00,0.0635,0.0554,0.0587,
江戸川 (Edogawa),2016-01-25,14:01～15:00,0.0616,0.0563,0.0587,
江戸川 (Edogawa),2016-01-25,13:01～14:00,0.0618,0.0548,0.0580,
江戸川 (Edogawa),2016-01-25,12:01～13:00,0.0621,0.0557,0.0585,
江戸川 (Edogawa),2016-01-25,11:01～12:00,0.0614,0.0542,0.0585,
江戸川 (Edogawa),2016-01-25,10:01～11:00,0.0620,0.0546,0.0581,
江戸川 (Edogawa),2016-01-25,09:01～10:00,0.0609,0.0554,0.0581,
江戸川 (Edogawa),2016-01-25,08:01～09:00,0.0614,0.0543,0.0577,
江戸川 (Edogawa),2016-01-25,07:01～08:00,0.0613,0.0546,0.0576,
江戸川 (Edogawa),2016-01-25,06:01～07:00,0.0623,0.0546,0.0584,
江戸川 (Edogawa),2016-01-25,05:01～06:00,0.0614,0.0548,0.0579,
江戸川 (Edogawa),2016-01-25,04:01～05:00,0.0617,0.0539,0.0583,
江戸川 (Edogawa),2016-01-25,03:01～04:00,0.0621,0.0550,0.0581,
江戸川 (Edogawa),2016-01-25,02:01～03:00,0.0624,0.0550,0.0579,
江戸川 (Edogawa),2016-01-25,01:01～02:00,0.0610,0.0555,0.0579,
江戸川 (Edogawa),2016-01-25,00:01～01:00,0.0601,0.0545,0.0578,
